This demonstration page uses our WeatherBlox Daily Observations layout. Learn more.

Left ArrowRight Arrow

39.51506, -84.39828

Hourly Observations for February 19, 2021

Temp ( °F °C ) Dew Point ( °F °C ) Humidity (%) Winds ( mph kmh ) Pressure ( in mb ) Visibility ( mi km ) Precip ( " mm )
12:15 am 00:15 Cloudy 23 -4.9 19 -7 85 85 NW 6 9 30.31 1026 7 11 0.00 0.00
12:35 am 00:35 Cloudy 23 -4.9 19 -7.1 85 85 NW 7 11 30.31 1026 10 16 0.00 0.00
12:55 am 00:55 Cloudy 23 -5 19 -7.1 85 85 NW 5 7 30.31 1026 10 16 0.00 0.00
1:15 am 01:15 Cloudy 23 -4.9 20 -6.9 86 86 NW 6 9 30.31 1026 10 16 0.00 0.00
1:35 am 01:35 Cloudy 23 -4.8 20 -6.9 85 85 NW 6 9 30.32 1027 10 16 0.00 0.00
1:55 am 01:55 Cloudy 23 -4.8 20 -6.9 85 85 WNW 6 9 30.32 1027 10 16 0.00 0.00
2:15 am 02:15 Cloudy 23 -4.8 20 -6.9 85 85 WNW 5 7 30.33 1027 10 16 0.00 0.00
2:35 am 02:35 Cloudy 23 -4.9 20 -6.8 87 87 W 7 11 30.33 1027 10 16 0.00 0.00
2:55 am 02:55 Cloudy 23 -5 19 -7 86 86 W 6 9 30.33 1027 7 11 0.00 0.00
3:15 am 03:15 Cloudy 23 -5.2 19 -7.4 85 85 WNW 7 11 30.34 1027 10 16 0.00 0.00
3:35 am 03:35 Cloudy 22 -5.3 19 -7.4 85 85 W 9 15 30.33 1027 10 16 0.00 0.00
3:55 am 03:55 Cloudy 22 -5.5 18 -7.7 85 85 WNW 7 11 30.33 1027 7 11 0.00 0.00
4:15 am 04:15 Cloudy 22 -5.6 18 -7.6 86 86 WNW 7 11 30.34 1027 7 11 0.00 0.00
4:35 am 04:35 Cloudy with Light Snow 21 -5.9 18 -7.8 87 87 W 8 13 30.34 1027 7 11 0.00 0.00
4:55 am 04:55 Cloudy with Light Snow 21 -6.2 17 -8.3 85 85 W 9 15 30.34 1028 7 11 0.00 0.00
5:15 am 05:15 Cloudy with Light Snow 20 -6.4 17 -8.4 86 86 NW 6 9 30.35 1028 5 8 0.00 0.00
5:35 am 05:35 Cloudy with Light Snow 20 -6.8 16 -8.7 87 87 NW 6 9 30.34 1028 7 11 0.00 0.00
5:55 am 05:55 Cloudy 19 -7 16 -8.9 86 86 WNW 5 7 30.36 1028 10 16 0.00 0.00
6:15 am 06:15 Cloudy 20 -6.9 16 -8.9 86 86 NW 6 9 30.35 1028 10 16 0.00 0.00
6:35 am 06:35 Cloudy with Light Snow 20 -6.8 16 -9 85 85 NW 6 9 30.35 1028 10 16 0.00 0.00
6:55 am 06:55 Cloudy with Light Snow 20 -6.9 16 -9.1 85 85 WNW 8 13 30.36 1028 7 11 0.00 0.00
7:15 am 07:15 Cloudy 19 -7 14 -9.8 81 81 NNW 8 13 30.37 1028 10 16 0.00 0.00
7:35 am 07:35 Cloudy 19 -7.1 14 -9.8 81 81 NW 8 13 30.37 1028 10 16 0.00 0.00
7:55 am 07:55 Cloudy with Light Snow 19 -7.1 14 -10 80 80 NW 8 13 30.37 1028 10 16 0.00 0.00
8:15 am 08:15 Cloudy with Light Snow 19 -7 14 -10.1 79 79 NNW 3 6 30.38 1029 10 16 0.00 0.00
8:35 am 08:35 Cloudy with Light Snow 20 -6.9 14 -10.1 78 78 NW 8 13 30.37 1029 10 16 0.00 0.00
8:55 am 08:55 Cloudy with Light Snow 20 -6.9 14 -9.9 79 79 WNW 7 11 30.37 1029 10 16 0.00 0.00
9:15 am 09:15 Cloudy 20 -6.8 14 -10.1 78 78 NNW 3 6 30.38 1029 10 16 0.00 0.00
9:35 am 09:35 Cloudy 20 -6.7 14 -10.1 77 77 NW 5 7 30.38 1029 10 16 0.00 0.00
9:55 am 09:55 Cloudy 20 -6.6 14 -10.1 76 76 W 7 11 30.38 1029 10 16 0.00 0.00
10:15 am 10:15 Cloudy 20 -6.6 13 -10.3 75 75 WNW 7 11 30.37 1029 10 16 0.00 0.00
10:35 am 10:35 Cloudy 20 -6.5 14 -10.1 76 76 W 6 9 30.38 1029 10 16 0.00 0.00
10:55 am 10:55 Cloudy 20 -6.4 13 -10.3 74 74 Calm 30.38 1029 10 16 0.00 0.00
11:15 am 11:15 Cloudy with Light Snow 21 -6.2 14 -9.8 76 76 WSW 6 9 30.38 1029 7 11 0.00 0.00
11:35 am 11:35 Cloudy 21 -6 14 -10.1 73 73 WSW 6 9 30.39 1029 10 16 0.00 0.00
11:55 am 11:55 Partly Cloudy 21 -5.9 14 -10.2 72 72 W 7 11 30.39 1029 10 16 0.00 0.00
12:15 pm 12:15 Partly Cloudy 22 -5.5 14 -9.9 71 71 SW 5 7 30.38 1029 10 16 0.00 0.00
12:35 pm 12:35 Partly Cloudy 23 -5.1 14 -10.1 68 68 W 9 15 30.38 1029 10 16 0.00 0.00
12:55 pm 12:55 Sunny 23 -5 14 -10.1 68 68 WSW 9 15 30.37 1028 10 16 0.00 0.00
1:15 pm 13:15 Sunny 24 -4.6 14 -9.9 67 67 WSW 10 17 30.37 1028 10 16 0.00 0.00
1:35 pm 13:35 Sunny 24 -4.6 14 -9.9 67 67 W 12 19 30.37 1028 10 16 0.00 0.00
1:55 pm 13:55 Sunny 24 -4.6 14 -10.2 65 65 W 9 15 30.36 1028 10 16 0.00 0.00
2:15 pm 14:15 Sunny 24 -4.7 14 -10.1 66 66 WNW 12 19 30.36 1028 10 16 0.00 0.00
2:35 pm 14:35 Partly Cloudy 24 -4.4 14 -10.2 64 64 W 13 20 30.36 1028 10 16 0.00 0.00
2:55 pm 14:55 Partly Cloudy 24 -4.6 13 -10.3 65 65 W 10 17 30.36 1028 10 16 0.00 0.00
3:15 pm 15:15 Sunny 23 -5 13 -10.7 65 65 W 12 19 30.36 1028 10 16 0.00 0.00
3:35 pm 15:35 Sunny 24 -4.5 13 -10.5 63 63 W 10 17 30.35 1028 10 16 0.00 0.00
3:55 pm 15:55 Sunny 25 -4.1 13 -10.8 60 60 WNW 12 19 30.35 1028 10 16 0.00 0.00
4:15 pm 16:15 Sunny 25 -4 12 -10.9 59 59 WNW 10 17 30.36 1028 10 16 0.00 0.00
4:35 pm 16:35 Partly Cloudy 25 -4 12 -11.2 58 58 W 14 22 30.36 1028 10 16 0.00 0.00
4:55 pm 16:55 Sunny 25 -4.1 11 -11.5 57 57 W 14 22 30.35 1028 10 16 0.00 0.00
5:15 pm 17:15 Sunny 24 -4.4 11 -11.6 58 58 W 13 20 30.36 1028 10 16 0.00 0.00
5:35 pm 17:35 Sunny 23 -5 11 -11.7 60 60 W 12 19 30.37 1028 10 16 0.00 0.00
5:55 pm 17:55 Sunny 22 -5.5 10 -12.1 60 60 WNW 9 15 30.37 1028 10 16 0.00 0.00
6:15 pm 18:15 Sunny 22 -5.8 10 -12.3 61 61 W 9 15 30.37 1029 10 16 0.00 0.00
6:35 pm 18:35 Clear 20 -6.5 9 -12.6 62 62 W 9 15 30.38 1029 10 16 0.00 0.00
6:55 pm 18:55 Clear 19 -7 9 -12.9 63 63 W 7 11 30.40 1029 10 16 0.00 0.00
7:15 pm 19:15 Clear 19 -7.3 9 -12.8 65 65 WNW 5 7 30.41 1030 10 16 0.00 0.00
7:35 pm 19:35 Cloudy 19 -7.4 9 -12.8 66 66 W 3 6 30.41 1030 10 16 0.00 0.00
7:55 pm 19:55 Cloudy 19 -7.5 9 -12.9 66 66 W 3 6 30.42 1030 10 16 0.00 0.00
8:15 pm 20:15 Cloudy 19 -7.3 9 -13 64 64 Calm 30.42 1030 10 16 0.00 0.00
8:35 pm 20:35 Partly Cloudy 18 -7.8 8 -13.5 64 64 NW 6 9 30.42 1030 10 16 0.00 0.00
8:55 pm 20:55 Clear 17 -8.2 7 -13.7 65 65 NW 3 6 30.42 1030 10 16 0.00 0.00
9:15 pm 21:15 Clear 16 -8.9 7 -13.8 68 68 W 3 6 30.43 1031 10 16 0.00 0.00
9:35 pm 21:35 Clear 14 -10.1 6 -14.5 70 70 W 5 7 30.43 1031 10 16 0.00 0.00
9:55 pm 21:55 Clear 9 -12.9 4 -15.5 81 81 SW 3 6 30.45 1031 10 16 0.00 0.00
10:15 pm 22:15 Clear 9 -12.8 7 -14 91 91 WSW 3 6 30.46 1032 7 11 0.00 0.00
10:35 pm 22:35 Clear 12 -11.1 7 -13.8 81 81 SW 3 6 30.46 1031 10 16 0.00 0.00
10:55 pm 22:55 Mostly Cloudy 11 -11.7 8 -13.2 89 89 Calm 30.46 1031 10 16 0.00 0.00
11:15 pm 23:15 Cloudy 8 -13.4 5 -15.1 87 87 WSW 3 6 30.46 1032 7 11 0.00 0.00
11:35 pm 23:35 Partly Cloudy 8 -13.6 5 -15.1 89 89 W 3 6 30.45 1031 7 11 0.00 0.00
11:55 pm 23:55 Clear with Mist and Fog 8 -13.6 6 -14.3 95 95 W 3 6 30.45 1031 7 11 0.00 0.00

Powered by AerisWeather